Regional Weather Roundup
Issued by NWS

Home | Current Version | Previous Version | Graphics & Text | Print | Product List | Glossary On
Versions: 1 2 3 4 5 6 7 8 9 10 11 12 13 14 15 16 17 18 19 20 21 22 23 24 25 26 27 28 29 30 31 32 33 34 35 36 37 38 39 40 41 42 43 44 45 46 47 48 49 50
000
ASUS43 KMPX 230910
RWRMN
WEATHER ROUNDUP FOR MINNESOTA
NATIONAL WEATHER SERVICE TWIN CITIES/CHANHASSEN MN
400 AM CDT MON OCT 23 2017


NOTE: "FAIR" INDICATES FEW OR NO CLOUDS BELOW 12,000 FEET WITH NO
SIGNIFICANT WEATHER AND/OR OBSTRUCTIONS TO VISIBILITY. N/A MEANS
CURRENT SKY AND/OR WEATHER CONDITIONS ARE NOT AVAILABLE.

MNZ060>063-068>070-231000-
   Twin Cities Metro

CITY           SKY/WX    TMP DP  RH WIND       PRES   REMARKS
TWIN CITIES    MOCLDY    54  35  48 S8        29.81F
ST PAUL        PTCLDY    50  38  63 SE6       29.82F
CRYSTAL        MOCLDY    51  33  50 S7        29.79F
BLAINE         MOCLDY    55  36  47 S8        29.80S
LAKEVILLE      MOCLDY    48  36  61 S5        29.82S
EDEN PRAIRIE   MOCLDY    53  34  48 S10       29.80F
SOUTH ST PAUL  PTCLDY    52  36  53 S5        29.82S
LAKE ELMO      MOCLDY    52  37  58 S10       29.83F
$$
MNZ001>005-007-008-013>017-022>024-027-028-231000-
   Northwest Minnesota

CITY           SKY/WX    TMP DP  RH WIND       PRES   REMARKS
BEMIDJI        CLOUDY    51  38  60 S5        29.62S
HALLOCK        CLOUDY    48  39  71 W7        29.57R
ROSEAU         LGT RAIN  52  45  76 SW13      29.55R
WARROAD        CLOUDY    54  41  62 SW10G16   29.55S
THIEF RVR FALL LGT RAIN  51  46  83 W8        29.61S
CROOKSTON      CLOUDY    50  48  93 W13       29.62R
FOSSTON        CLOUDY    48  43  81 SW9       29.65R
DETROIT LAKES  MOCLDY    54  41  62 W12G24    29.67S
MOORHEAD       CLOUDY    55  43  62 W13       29.68R
PARK RAPIDS    PTCLDY    53  39  59 SW12      29.64S
MAHNOMEN       CLOUDY    49  41  73 W9G16     29.63S
$$
MNZ006-009>011-018-025>026-231000-
   North Central Minnesota

CITY           SKY/WX    TMP DP  RH WIND       PRES   REMARKS
BAUDETTE       CLOUDY    51  40  65 S13       29.57F
FLAG ISLAND    MOCLDY    52  45  76 SE10      29.53F
INTL FALLS     CLOUDY    54  34  46 S5        29.61F
WASKISH        LGT RAIN  52  43  71 SW3       29.60F
BIG FORK       CLOUDY    54  36  50 S6        29.64F
LONGVILLE      RAIN      52  37  58 S9        29.65F
GRAND RAPIDS   CLOUDY    53  36  52 S14       29.68F
CRANE LAKE     CLOUDY    52  34  50 S6        29.67F
ORR            CLOUDY    52  30  43 S9G17     29.64F
COOK           CLOUDY    54  34  47 S7        29.67F
WALKER         CLOUDY    52  36  55 S7        29.64S
$$
MNZ012-019>021-037-231000-
   Northeast Minnesota

CITY           SKY/WX    TMP DP  RH WIND       PRES   REMARKS
DULUTH         CLOUDY    52  33  48 S14G22    29.73F
ELY            CLOUDY    52  30  43 S9        29.70F
HIBBING        CLOUDY    50  33  52 S7        29.69F
EVELETH        MOCLDY    53  22  30 S6        29.72S
DULUTH HARBOR  MOCLDY    55  37  50 SW8       29.75F
TWO HARBORS    CLOUDY    50  39  66 CALM      29.73F
SILVER BAY     PTCLDY    46  41  81 CALM      29.74F
G MARAIS ARPRT PTCLDY    46  36  66 S6        29.77F
$$
MNZ029>031-032-039>041-046>048-054>057-064-231000-
   West Central Minnesota

CITY           SKY/WX    TMP DP  RH WIND       PRES   REMARKS
FERGUS FALLS   CLOUDY    55  43  62 W14       29.70S
WHEATON        PTCLDY    57  39  51 W13G20    29.74S
MORRIS         CLOUDY    57  43  58 W14       29.72S
ALEXANDRIA     CLOUDY    53  40  61 SW12      29.73F
ELBOW LAKE     MOCLDY    56  42  59 W16G22    29.72S
WADENA         PTCLDY    54  39  58 SW12G17   29.66F
GLENWOOD       CLOUDY    54  39  58 SW10      29.75R
APPLETON       CLOUDY    55  37  50 W12       29.75S
BENSON         CLOUDY    54  39  58 W8        29.76S
ORTONVILLE     MOCLDY    55  41  58 W10       29.76R
MADISON        PTCLDY    54  39  58 SW8       29.77S
WILLMAR        LGT RAIN  50  41  71 S5        29.77F
$$
MNZ033>034-036-042>043-049>051-058-059-231000-
   Central Minnesota

CITY           SKY/WX    TMP DP  RH WIND       PRES   REMARKS
ST CLOUD       CLOUDY    51  38  60 S8        29.75F
SAUK CENTRE    PTSUNNY   53  38  58 SW10      29.73F
PAYNESVILLE    PTCLDY    52  37  55 S9        29.76F
AITKIN         CLOUDY    52  37  58 S10       29.68F
PINE RIVER     DRIZZLE   50  36  57 S7        29.70F
BRAINERD       CLOUDY    54  35  48 S15       29.70F
STAPLES        PTCLDY    54  36  50 SW10G16   29.68F
LONG PRAIRIE   MOCLDY    52  36  54 S9        29.71F
LITTLE FALLS   CLOUDY    52  28  40 S8        29.73S
LITCHFIELD     MOCLDY    52  39  62 CALM      29.79R
BUFFALO        CLOUDY    52  34  49 S3        29.79F
MAPLE LAKE     CLOUDY    53  39  58 S6        29.78F
HUTCHINSON     CLOUDY    50  39  66 S6        29.79F
$$
MNZ037-044-045-052-053-231000-
   East Central Minnesota

CITY           SKY/WX    TMP DP  RH WIND       PRES   REMARKS
PRINCETON      CLOUDY    55  36  47 S10       29.76F
MORA           CLOUDY    50  34  53 S7        29.77F
CAMBRIDGE      CLOUDY    55  37  50 SE7       29.77F
RUSH CITY      CLOUDY    52  35  52 S9        29.78F
MOOSE LAKE     CLOUDY    52  32  46 S7        29.72F
HINCKLEY       CLOUDY    54  36  50 S12G17    29.76F
CLOQUET        CLOUDY    54  30  40 S9        29.74F
MCGREGOR       CLOUDY    52  36  54 S10       29.70F
$$
MNZ071>073-080-081-089-090-097-098-231000-
   Southwest Minnesota

CITY           SKY/WX    TMP DP  RH WIND       PRES   REMARKS
MONTEVIDEO     CLOUDY    54  36  50 W6        29.76S
GRANITE FALLS  MOCLDY    53  38  58 S9        29.79S
CANBY          PTCLDY    55  37  51 SW12      29.80S
MARSHALL       CLOUDY    54  35  48 W15       29.79R
REDWOOD FALLS  CLOUDY    51  35  54 SW6       29.78S
OLIVIA         CLOUDY    50  36  57 S6        29.76F
PIPESTONE      CLOUDY    46  34  61 N5        29.83R
WORTHINGTON    CLOUDY    49  32  52 SW9       29.83R
JACKSON        CLEAR     46  34  61 S9        29.82F
TRACY          PTCLDY    53  35  50 SW13G18   29.80R
SLAYTON        CLOUDY    49  32  53 SW15      29.82S
$$
MNZ065>067-074>077-082>085-091>093-231000-
   South Central Minnesota

CITY           SKY/WX    TMP DP  RH WIND       PRES   REMARKS
MANKATO        CLEAR     47  35  63 S6        29.81F
NEW ULM          N/A     46  36  66 S6        29.79F
ST JAMES       PTCLDY    46  36  66 S7        29.82S
FAIRMONT       CLEAR     47  36  65 S10       29.83F
GLENCOE        CLOUDY    51  37  59 S6        29.78F
FARIBAULT      CLEAR     48  37  66 S8        29.84S
OWATONNA       CLEAR     48  37  66 S12       29.84F
WASECA         CLEAR     50  34  53 S7        29.84F
$$
MNZ078>079-086>088-094>096-231000-
   Southeast Minnesota

CITY           SKY/WX    TMP DP  RH WIND       PRES   REMARKS
ROCHESTER      CLOUDY    47  41  80 S12       29.88F
RED WING       CLOUDY    54  36  50 E5        29.83F
STANTON        CLOUDY    51  38  61 S8        29.82F
DODGE CENTER   LGT RAIN  48  37  66 S16       29.85F
WINONA         CLOUDY    48  41  76 CALM      29.90F
AUSTIN         CLOUDY    46  39  76 S7        29.86F
PRESTON        CLOUDY    46  40  79 S12       29.90F
$$
ABBREVIATIONS USED IN REMARKS
   TC - TEMPERATURES IN CELSIUS
  WCI - WIND CHILL INDEX
   HX - HEAT INDEX
  VSB - VISIBILITY
$$



USA.gov is the U.S. government's official web portal to all federal, state and local government web resources and services.